Wind_Speed
7 8 8 8 8 8 8 7 6 6 7 8 8 8 8 9 9 9 8 8 7 7 7 7 8 8 7 7 6 6 6 6 6 6 6 7 7 8 8 9 9 10 10 11 12 13 14 14 15 16 16 17 17 18 19 19 20 20 21 21 21 21 20 21 21 22 22 23 24 25 26 28 30 32
6 7 8 8 8 8 8 8 7 6 6 7 7 7 7 7 8 8 8 8 8 8 8 8 8 8 7 7 7 7 7 7 7 7 8 9 10 10 11 11 11 11 12 12 12 14 15 15 16 16 16 17 17 18 18 18 19 19 20 20 20 20 20 20 20 21 21 22 23 24 25 26 28 30
6 6 7 8 8 9 8 8 8 8 7 6 6 7 7 7 7 8 8 8 8 7 7 8 8 8 8 8 8 8 9 9 9 9 10 10 12 13 14 14 13 13 13 13 13 14 15 16 17 17 17 17 17 18 18 18 18 18 19 19 20 19 19 19 19 20 20 21 22 23 24 25 27 28
6 6 6 7 8 8 9 9 9 9 9 8 8 8 7 7 7 7 7 8 8 7 7 7 8 8 9 9 9 10 10 10 11 11 12 12 12 14 16 17 16 15 15 15 15 15 16 16 17 18 17 17 17 18 18 17 17 18 18 19 19 19 19 18 18 19 19 20 21 21 23 24 25 26
6 7 6 6 7 8 8 9 9 9 10 10 10 10 9 9 8 8 8 8 8 8 8 8 8 9 10 10 11 11 11 12 12 13 14 14 13 13 14 18 20 19 18 18 17 17 18 18 18 19 18 18 17 17 17 17 17 18 18 18 18 18 18 18 18 18 19 19 20 20 21 22 24 25
7 7 7 7 7 7 7 8 8 9 9 10 10 10 10 10 10 10 10 10 10 10 10 10 11 11 12 13 13 13 13 13 14 15 16 16 16 15 14 16 20 22 22 21 21 19 19 19 19 19 19 18 18 18 18 18 17 17 18 18 18 17 17 17 17 17 17 18 19 19 20 21 22 24
8 8 8 8 8 7 7 7 8 8 8 9 9 9 10 10 10 11 11 11 11 11 11 11 12 13 14 14 14 14 15 15 15 16 17 17 18 18 17 16 19 22 23 24 24 21 20 19 19 19 20 19 19 19 19 19 18 18 18 17 17 17 17 16 16 16 16 16 17 18 18 19 20 22
9 8 8 8 8 8 8 8 8 8 8 8 8 9 9 9 9 10 10 10 10 10 11 11 11 12 12 13 13 14 14 14 15 16 17 18 18 19 19 17 18 20 22 24 24 23 21 19 18 19 20 20 19 19 19 19 19 18 18 17 17 16 16 16 16 16 16 15 15 16 17 18 18 19
10 9 9 9 8 8 8 8 9 9 9 9 9 9 10 10 10 10 10 10 10 10 11 11 11 12 12 13 13 14 14 15 16 16 17 18 19 19 20 19 18 18 20 22 24 23 22 21 19 18 18 20 20 19 19 19 19 19 18 18 17 17 16 15 15 15 15 15 14 14 15 16 17 18
11 10 10 9 9 8 8 9 9 9 10 10 10 10 11 11 11 11 11 11 11 11 11 12 12 12 12 13 14 14 14 14 15 15 16 18 19 20 20 20 18 17 17 20 22 23 22 22 22 21 20 21 22 21 19 19 19 19 19 18 18 17 16 15 15 15 14 14 14 14 13 14 15 16
12 12 11 10 10 9 9 9 9 10 10 10 10 11 11 11 11 11 10 10 10 10 10 10 10 10 10 11 12 12 11 12 12 11 12 14 16 17 17 18 17 16 14 15 18 21 22 22 22 23 23 22 23 23 20 19 19 19 18 18 18 18 17 16 15 15 14 14 14 13 13 13 13 13
13 13 12 12 11 10 10 10 10 10 10 10 10 10 10 10 10 10 10 10 10 9 9 9 9 8 8 9 10 10 9 9 9 10 11 12 14 15 15 15 16 16 15 13 13 16 18 20 21 23 23 22 23 22 19 18 19 19 18 18 18 18 18 17 16 15 15 14 14 13 13 12 12 12
13 14 13 13 12 11 11 11 11 10 10 10 10 10 10 10 10 10 10 10 10 10 9 9 9 8 9 9 9 9 8 8 9 10 11 12 13 14 15 16 16 16 15 16 15 14 14 15 17 19 21 22 22 22 20 18 18 19 19 18 18 18 18 18 17 17 15 15 14 14 13 13 12 12
14 14 14 13 13 12 12 12 12 11 11 11 11 11 11 11 10 10 11 11 11 10 10 10 10 9 10 10 10 9 8 7 8 10 11 12 13 13 14 16 17 16 15 15 17 17 16 14 14 15 16 18 21 22 21 19 19 19 19 19 19 19 19 18 18 17 17 16 15 14 14 13 13 12
15 15 15 14 14 13 13 13 13 13 13 13 13 12 12 11 11 11 12 12 11 11 10 10 10 10 10 11 10 10 9 8 8 9 10 11 12 13 13 14 16 16 15 14 15 18 19 17 16 16 14 14 17 20 20 19 18 19 20 20 20 20 19 19 18 18 18 17 16 15 15 14 14 13
16 16 15 15 14 14 14 14 14 14 14 14 14 14 12 12 12 12 12 12 12 11 11 11 11 12 11 11 11 11 10 9 9 10 10 11 11 12 13 14 16 17 16 14 14 16 19 19 18 18 16 15 16 18 18 18 18 18 19 20 20 21 20 20 19 19 18 18 17 16 16 15 15 15
17 17 16 16 15 15 15 15 16 16 16 16 16 15 14 13 13 13 13 13 14 13 12 12 13 14 13 12 12 13 11 11 12 12 13 13 13 14 14 15 16 17 17 16 14 15 18 18 18 18 17 17 18 19 19 19 19 18 19 20 21 22 21 21 20 20 19 19 18 18 18 17 16 16
18 18 17 17 16 16 16 17 17 18 18 18 17 16 15 15 15 15 15 15 16 16 15 14 15 16 15 14 14 15 15 14 14 15 16 16 17 17 17 16 16 17 17 16 14 15 18 18 17 16 16 17 20 21 21 21 20 19 19 20 21 22 22 22 21 21 21 20 20 19 19 19 18 18
18 18 18 18 18 18 18 19 19 20 21 21 20 18 18 18 18 17 17 18 18 18 18 17 17 17 17 17 17 17 18 18 18 18 18 19 20 20 18 17 17 18 18 17 15 15 17 20 19 17 16 16 18 22 23 24 23 22 21 21 21 21 21 22 22 21 21 21 21 21 21 20 20 19
18 19 19 19 19 20 20 21 22 22 23 23 22 22 21 20 20 20 20 21 21 21 21 20 20 20 20 20 20 20 21 21 22 23 22 22 22 22 20 19 19 19 20 21 20 17 17 20 22 22 20 18 18 20 23 25 25 24 23 22 21 21 22 22 22 22 22 22 22 22 22 21 21 21
21 20 20 21 21 22 23 24 25 25 25 25 24 24 24 23 22 21 23 24 24 24 24 23 22 22 23 23 23 24 24 25 26 26 25 26 25 23 22 21 21 21 22 25 25 22 20 21 23 24 24 23 21 21 23 24 26 26 24 23 22 22 22 22 23 23 23 23 22 22 22 22 21 21
25 25 24 24 24 24 25 26 27 27 27 27 26 26 26 24 23 23 25 26 26 26 26 25 25 25 25 25 26 26 27 27 28 28 28 28 27 25 24 23 23 23 25 27 28 26 25 26 27 27 27 26 24 23 23 25 26 26 25 24 23 22 22 23 23 23 23 24 23 22 22 21 21 21
29 29 28 28 28 27 28 29 29 29 29 28 28 28 27 24 24 25 28 28 27 27 26 26 26 26 27 28 27 27 28 28 28 28 27 28 28 26 26 26 25 25 27 29 29 27 27 28 30 30 30 29 27 25 25 25 26 27 26 25 23 22 22 23 23 23 24 24 24 24 22 21 21 21
31 31 31 31 31 31 31 31 31 31 31 30 30 29 28 25 26 28 29 28 28 27 26 25 25 26 27 28 28 28 29 29 29 27 27 27 27 27 26 27 26 26 27 29 29 28 28 28 29 30 30 30 29 28 26 26 26 27 27 26 24 22 22 23 23 23 24 24 25 25 24 22 21 20
32 32 33 33 33 34 34 34 34 33 32 32 32 31 29 28 29 30 30 29 28 28 26 26 26 26 26 27 28 28 29 30 29 28 26 26 26 25 26 26 26 26 27 29 28 28 28 28 29 30 30 30 30 29 27 26 26 26 26 27 26 24 22 23 24 25 25 25 25 25 25 24 22 21
34 34 34 35 35 36 36 36 36 35 34 34 33 32 31 31 32 31 30 30 29 28 28 28 28 28 28 27 28 28 29 29 29 28 27 26 26 25 24 25 25 25 26 28 28 28 28 28 29 30 30 31 31 30 28 26 25 24 24 25 26 25 24 23 25 26 26 26 26 25 25 24 23 22
35 35 36 36 37 37 36 37 37 37 36 35 34 33 34 34 34 33 31 30 30 30 30 30 30 31 30 29 28 29 29 30 29 29 27 27 27 27 26 25 24 24 25 27 28 28 27 28 28 30 30 31 31 31 29 27 24 22 22 23 24 26 26 24 24 26 27 27 27 26 25 24 23 23
37 37 38 38 38 37 37 37 37 38 37 36 35 35 35 36 36 35 33 32 32 32 32 33 33 33 32 31 31 31 31 31 30 30 30 29 28 27 27 27 26 25 26 26 27 27 27 27 28 29 30 30 30 30 30 27 24 21 21 21 22 25 26 26 25 25 27 28 28 28 26 25 24 24
38 39 41 40 39 39 38 37 38 38 37 37 37 36 36 37 37 36 36 36 36 35 35 35 34 33 33 33 32 32 32 31 31 31 32 31 30 29 28 27 27 27 27 28 29 29 27 26 27 28 28 28 28 28 28 27 25 22 21 21 22 24 26 27 26 25 25 26 27 28 28 28 27 26
37 40 41 42 41 40 40 38 37 37 37 38 37 37 37 37 37 38 38 38 38 37 36 36 34 33 33 33 32 32 32 31 31 32 31 31 31 31 30 28 26 26 27 28 30 30 30 27 25 25 26 26 26 26 26 25 25 23 22 22 23 24 27 29 29 27 26 26 26 27 29 30 30 31
36 38 41 42 42 41 40 39 37 36 36 38 38 37 37 37 37 38 39 39 38 37 36 35 34 33 33 32 31 31 30 29 30 31 30 29 29 30 30 27 25 25 26 27 28 29 29 28 26 25 25 25 25 25 24 23 24 25 24 23 23 24 26 29 30 30 29 28 27 28 29 30 31 33
35 36 38 40 40 39 39 37 36 36 36 37 38 37 37 37 37 38 38 38 37 36 35 34 33 31 30 29 28 28 27 26 27 29 29 28 27 28 27 25 24 24 24 25 26 27 28 27 26 26 26 26 25 25 25 24 24 26 26 24 24 24 26 28 30 31 31 30 29 30 31 31 31 32
36 35 36 37 37 36 36 36 36 36 36 37 37 37 37 37 37 36 36 35 34 34 33 31 29 29 28 27 27 26 25 25 26 27 27 27 27 27 26 25 24 24 24 24 25 27 28 28 28 28 27 27 26 27 27 26 27 28 28 26 25 25 26 28 29 29 30 30 31 31 32 32 31 32
37 35 33 33 33 33 33 33 33 34 35 36 37 36 36 35 34 33 32 32 31 31 30 28 27 28 27 26 26 26 25 25 26 27 27 27 27 27 26 25 24 25 25 25 26 27 28 28 28 28 28 28 28 28 29 29 30 31 31 29 27 26 27 28 29 29 29 30 32 34 34 32 32 33
37 35 32 30 30 31 31 30 31 32 33 34 35 34 32 31 30 30 30 30 30 29 28 27 27 28 27 27 27 27 26 26 27 27 28 28 27 27 27 26 25 26 26 26 27 28 29 28 28 28 28 28 28 28 29 32 34 34 33 32 30 29 29 29 30 31 30 30 33 36 35 33 33 33
33 34 34 31 30 31 30 29 29 31 31 32 32 31 29 28 29 29 30 31 32 32 31 30 30 29 28 28 28 28 29 29 29 29 29 29 29 29 28 27 27 28 29 29 29 31 31 31 30 29 29 29 29 27 29 33 36 35 34 34 33 32 32 31 32 32 32 33 35 37 37 36 35 35
33 33 34 33 32 32 30 28 29 31 32 32 32 30 29 29 30 31 32 35 35 35 34 34 33 31 31 30 30 31 32 32 31 29 28 29 30 31 30 30 30 31 32 32 32 33 34 34 34 33 32 33 32 30 31 34 36 36 36 37 36 35 35 33 33 33 34 35 36 38 39 39 38 37
36 35 34 33 33 32 30 29 29 31 33 33 32 30 29 30 31 33 35 36 35 35 35 35 35 35 35 35 34 34 34 33 31 30 31 33 33 33 32 32 31 32 33 33 34 35 35 35 35 36 36 36 35 33 33 34 34 34 37 39 39 39 38 36 35 34 35 35 37 38 41 42 41 40
38 38 36 35 34 33 32 30 30 31 33 34 33 31 31 31 32 34 35 36 36 36 37 38 39 40 40 38 35 33 33 33 33 34 37 40 39 37 36 35 34 32 32 32 32 34 35 35 36 37 37 37 36 36 35 34 32 31 34 38 40 41 41 39 38 38 38 38 39 40 41 42 43 43
39 39 39 38 37 36 35 34 32 32 32 33 34 33 33 33 34 35 36 36 37 38 41 43 45 45 43 40 37 35 35 37 38 38 40 43 43 41 39 40 39 37 34 31 30 32 33 34 36 38 37 36 36 37 36 34 33 34 35 37 38 40 40 40 40 41 41 40 41 43 43 43 44 45
41 40 39 40 41 40 38 37 37 36 35 35 36 37 37 37 37 38 38 39 40 42 46 48 49 47 44 40 37 37 39 41 42 41 42 44 44 42 41 41 41 41 39 34 31 31 33 35 37 39 39 38 38 38 37 36 36 37 38 38 39 40 41 41 41 42 42 42 42 44 45 45 45 45
44 43 41 41 42 43 42 41 40 40 41 41 42 42 42 42 42 41 42 43 46 48 50 50 49 48 46 43 39 37 40 43 45 45 45 46 46 44 43 42 41 42 41 38 34 33 35 38 40 41 41 41 41 40 38 38 39 39 40 39 40 40 41 42 42 41 42 42 42 43 44 45 45 45
48 46 44 43 43 44 45 45 44 44 44 45 45 45 45 45 45 45 46 48 49 48 49 50 49 48 48 46 44 44 44 45 46 47 47 47 46 44 43 42 42 42 42 41 39 39 39 41 43 44 43 43 43 43 41 40 40 41 41 42 42 41 42 42 42 42 43 42 42 42 43 43 44 43
50 49 48 46 45 45 46 48 49 48 48 46 45 44 45 45 45 46 47 48 47 47 48 49 47 45 44 44 46 47 47 46 46 47 48 47 46 44 43 43 42 43 43 43 42 41 41 42 44 45 44 44 45 44 43 42 42 42 43 45 46 44 43 44 46 47 47 46 46 45 44 44 45 45
51 50 49 48 48 47 48 49 51 51 50 48 46 45 46 46 46 46 47 48 49 50 51 51 48 44 43 44 47 49 48 46 45 45 45 45 44 43 43 42 41 43 46 44 42 42 42 42 42 43 44 46 46 44 44 46 47 45 44 45 48 48 48 48 49 49 50 51 52 51 51 51 51 50
Wind_Direction
170 177 181 181 183 180 176 172 166 160 159 164 170 172 173 174 176 178 176 178 179 182 187 187 189 191 189 192 200 203 207 215 231 248 264 277 283 287 292 297 303 309 315 320 325 329 333 336 338 343 347 350 350 351 355 360 2 4 7 10 13 15 14 11 10 12 12 12 14 14 14 17 21 25
171 178 187 190 194 197 193 187 185 181 174 174 177 176 178 180 182 180 177 179 183 185 186 192 200 203 201 203 208 213 218 224 235 248 259 271 280 285 286 289 295 301 307 312 317 321 324 326 330 335 339 343 344 344 348 354 357 358 1 4 7 11 12 10 8 10 11 13 15 16 16 18 21 25
171 181 192 194 199 204 205 202 202 201 198 196 195 189 186 187 189 189 184 185 192 195 192 199 209 213 215 218 221 226 233 238 244 252 259 267 277 285 288 289 290 294 299 305 310 313 317 319 321 326 330 334 337 339 341 346 351 353 355 357 0 5 8 8 7 8 9 11 13 16 17 19 21 25
178 186 194 197 201 206 209 211 213 213 213 213 216 214 209 204 203 202 198 195 201 208 210 214 217 220 227 234 237 240 245 251 256 259 263 266 270 279 289 294 295 295 297 301 304 308 310 313 315 317 321 325 329 332 335 339 343 347 350 351 353 357 2 4 5 6 7 9 12 14 16 18 20 24
189 194 196 199 203 206 210 213 216 219 219 221 224 227 227 227 225 222 220 216 215 217 222 226 230 232 238 244 248 251 254 260 265 268 270 272 272 272 278 287 294 298 299 300 302 305 307 308 309 311 314 318 322 326 329 333 337 340 342 345 347 349 354 358 1 3 6 8 11 13 15 18 21 24
195 200 201 204 206 206 209 212 215 220 222 225 229 232 233 236 238 239 238 237 234 232 232 234 237 241 246 252 256 261 265 268 272 275 277 279 281 280 276 276 284 292 297 299 300 302 303 304 305 307 310 314 319 322 326 329 333 334 335 337 339 342 345 350 354 358 2 6 10 12 14 17 21 24
198 202 205 208 210 209 209 210 213 218 222 226 229 233 236 239 242 246 247 248 247 246 245 245 246 248 252 256 261 266 271 273 275 278 281 282 284 285 284 279 279 286 292 296 299 301 301 301 303 306 309 313 318 322 325 329 333 335 335 333 332 334 337 341 346 351 356 2 7 11 14 17 20 24
203 205 207 210 212 212 212 213 214 217 220 223 225 227 232 237 241 244 248 251 253 254 255 255 254 255 258 261 264 267 270 273 275 277 279 282 284 285 287 285 282 284 289 294 298 302 304 305 306 306 310 314 319 323 326 330 336 339 340 340 336 331 330 332 337 343 347 354 2 8 12 15 19 23
209 209 211 213 215 216 218 218 219 222 223 225 225 227 230 232 236 240 244 247 250 253 256 258 258 258 260 262 264 266 268 270 273 276 279 282 285 286 288 290 288 286 288 292 299 305 309 313 315 315 316 317 321 325 327 329 336 340 342 346 345 337 330 326 328 333 338 344 352 0 7 12 16 20
213 213 214 217 219 219 220 222 225 226 228 230 230 231 233 234 236 240 243 246 248 250 254 257 259 260 261 263 265 267 269 271 273 277 280 283 285 286 289 294 297 295 290 290 297 307 315 321 324 326 327 326 325 327 329 329 332 336 339 344 348 346 340 331 324 324 328 334 340 348 358 6 12 16
215 216 217 219 221 221 221 224 226 227 229 232 234 234 235 237 238 240 242 244 246 248 252 254 257 259 261 263 267 270 273 276 279 280 281 282 286 291 294 298 304 309 305 296 293 299 310 320 326 328 331 330 326 327 331 330 328 332 338 341 346 349 349 343 331 321 319 323 330 336 344 354 3 9
217 218 218 220 222 223 223 224 226 227 227 228 231 232 234 236 238 239 240 242 244 246 250 254 255 259 260 262 266 271 273 276 279 279 279 281 287 294 301 304 308 314 319 317 307 299 303 311 316 320 325 326 323 325 333 335 330 332 337 337 340 346 349 348 341 330 318 314 318 325 331 339 349 357
222 221 221 221 222 223 225 227 228 228 228 229 231 232 233 236 239 241 242 244 247 250 254 258 260 262 263 262 264 269 272 270 267 268 270 275 281 288 295 300 305 311 317 321 322 317 313 312 310 312 318 319 316 321 332 337 333 333 334 333 335 340 342 344 344 339 329 316 310 313 319 325 332 341
229 228 226 225 223 224 227 229 230 230 232 234 235 235 238 242 245 249 251 253 255 258 261 264 266 267 268 268 270 274 277 275 268 266 268 272 277 283 289 294 300 309 316 318 319 318 318 320 318 315 318 316 312 318 329 334 331 330 330 331 332 334 336 339 340 340 337 329 316 307 307 312 318 324
233 233 232 230 227 226 228 232 233 233 235 239 242 244 245 249 253 256 258 261 264 266 268 269 270 272 273 276 279 280 282 283 278 272 271 273 278 284 290 295 301 309 315 319 318 315 315 320 323 322 325 321 314 318 327 330 329 327 327 330 331 332 334 336 336 336 337 336 331 318 306 302 305 311
235 236 235 234 232 230 230 233 236 237 238 242 246 250 251 252 255 258 262 266 270 272 273 275 276 277 279 283 287 286 286 288 286 282 279 280 283 287 293 299 303 306 309 313 316 313 312 317 319 321 327 324 316 319 325 327 328 327 326 328 331 333 335 335 335 334 333 335 336 331 320 306 299 299
235 236 237 237 235 234 233 235 237 240 242 243 246 249 253 255 256 259 264 268 272 275 276 277 278 281 284 286 287 288 288 288 287 287 287 287 288 290 293 297 299 300 303 307 310 307 307 311 315 319 325 323 317 319 323 324 327 328 327 328 331 333 334 335 334 333 331 332 333 333 330 321 307 296
235 236 238 238 237 236 236 237 238 240 244 246 246 247 250 254 258 261 265 269 273 276 277 278 279 282 286 288 288 289 289 287 286 286 287 289 290 290 292 295 295 295 298 301 303 303 303 306 310 315 322 320 317 319 321 322 325 328 329 329 330 330 331 332 333 332 330 330 330 330 329 327 320 308
237 238 239 240 241 241 240 240 240 241 244 247 249 249 249 252 256 261 265 268 271 274 277 279 280 282 286 288 288 289 289 289 288 286 285 286 287 287 290 293 294 295 297 297 297 299 302 304 307 312 316 315 314 315 317 319 322 326 328 329 328 327 328 329 330 330 329 328 327 327 326 324 323 318
243 243 242 242 243 244 244 244 244 244 245 247 250 252 253 253 256 260 265 268 270 272 275 277 279 282 284 286 287 287 288 288 287 286 286 286 284 285 289 292 293 295 297 296 294 295 298 301 305 309 311 311 311 311 312 314 318 321 325 327 326 325 325 325 326 327 326 326 325 324 324 322 321 320
247 247 246 244 244 244 246 247 247 248 249 249 251 253 254 256 258 261 265 268 271 273 276 277 279 280 282 283 285 286 287 287 285 284 284 284 282 283 286 288 290 292 294 293 293 296 298 297 299 303 305 307 309 309 310 311 314 317 320 323 323 322 322 323 323 323 323 323 323 322 320 319 318 318
245 246 246 246 245 245 247 248 249 251 252 253 254 255 257 259 261 264 266 268 270 273 276 279 281 282 283 283 283 284 284 284 283 282 283 283 283 284 285 284 284 286 287 287 289 294 298 298 298 300 301 303 306 307 307 309 310 312 315 317 318 318 318 319 319 319 319 320 319 317 314 312 312 314
245 246 247 248 248 248 249 250 252 253 255 257 258 260 262 264 265 266 266 268 271 273 275 277 280 282 283 283 284 283 283 281 280 280 281 282 285 287 287 287 286 285 285 285 287 291 294 295 297 298 300 303 305 306 307 307 307 308 311 312 313 314 314 314 314 315 315 316 315 313 309 305 304 307
246 247 248 250 251 251 251 252 253 255 257 259 261 263 266 267 266 265 266 269 271 273 275 276 277 278 279 280 281 281 281 281 281 282 282 283 285 286 287 287 287 286 286 286 288 291 292 292 294 296 298 300 302 303 304 304 304 305 307 307 308 309 310 309 310 310 312 313 314 311 307 301 298 300
248 248 249 251 251 252 253 254 255 256 258 260 262 265 268 268 267 267 268 270 271 273 275 276 276 276 276 276 278 279 280 281 283 284 285 285 285 286 286 286 287 288 288 288 290 291 292 293 294 296 297 299 299 301 302 301 301 302 303 304 305 306 307 307 307 308 310 311 312 311 308 301 297 297
249 249 250 251 252 253 255 256 258 259 260 261 264 266 268 268 268 269 270 271 273 274 275 275 275 275 274 275 277 278 280 281 282 283 285 285 285 284 284 284 286 288 288 288 290 291 292 294 295 295 296 297 298 300 302 301 300 300 300 301 303 304 306 307 307 307 308 308 308 310 308 303 297 296
250 251 251 252 254 255 257 259 261 262 263 264 266 267 268 269 270 271 272 273 274 274 274 274 274 275 276 277 277 278 278 279 280 282 283 283 284 284 284 283 283 284 285 286 288 290 292 294 294 295 296 297 298 300 301 301 301 300 299 299 300 301 303 305 305 305 306 306 307 307 306 302 297 294
250 250 251 252 253 256 258 260 262 264 266 268 269 270 271 272 273 275 275 274 273 273 272 272 273 275 277 278 278 277 277 278 279 280 280 279 279 280 282 283 283 282 282 283 284 286 288 291 293 293 294 297 299 301 302 302 302 301 299 297 296 296 298 301 302 302 303 305 306 306 305 301 296 292
252 251 252 252 252 253 255 257 260 263 266 268 270 271 272 274 275 276 275 274 273 273 273 273 274 276 277 277 277 278 278 278 279 279 279 279 279 278 276 277 278 280 282 282 282 283 284 286 288 290 292 295 297 300 301 303 304 304 300 297 294 292 293 297 301 302 303 305 307 307 305 301 297 293
255 255 254 254 254 254 255 256 258 261 264 267 268 270 271 273 274 275 274 274 274 274 274 275 275 275 275 276 277 277 277 278 278 278 278 279 280 280 278 275 274 275 276 278 281 283 285 285 286 287 290 293 295 297 299 302 304 304 301 298 295 292 292 295 298 300 301 304 307 308 307 305 302 298
252 253 254 254 254 254 255 256 258 261 264 266 267 268 269 270 271 272 273 273 274 275 275 275 274 273 274 274 274 274 275 276 277 277 278 279 279 280 281 281 280 276 273 273 274 277 280 283 284 286 289 291 294 296 298 300 301 300 298 297 296 294 292 294 296 298 300 302 305 306 306 305 304 301
252 251 253 255 254 253 253 253 254 255 259 262 264 266 266 267 268 269 271 273 274 274 273 272 272 272 272 272 271 271 272 273 274 275 277 279 280 280 282 283 284 281 278 275 274 274 275 277 279 282 285 288 291 293 295 297 298 296 294 295 295 294 292 292 293 296 299 301 302 301 300 299 299 298
256 255 256 257 256 252 251 252 251 251 253 257 260 261 262 264 266 268 270 271 270 269 268 268 268 269 269 268 268 268 268 268 269 271 274 276 278 280 282 284 284 283 282 280 278 277 277 277 279 282 285 288 290 292 293 295 294 292 292 293 294 294 292 290 289 292 295 298 298 297 296 297 297 295
258 260 260 261 258 255 255 256 254 252 252 253 255 255 257 260 264 266 266 265 263 263 263 264 265 266 266 266 266 267 266 265 266 268 271 272 274 276 279 282 283 284 284 284 283 281 281 281 283 285 287 289 290 291 293 292 290 289 290 292 295 294 293 290 287 287 290 293 294 294 295 298 300 298
258 260 261 261 261 260 260 260 255 250 248 249 250 252 254 257 258 258 258 257 256 258 260 263 265 266 266 266 265 266 267 268 268 268 270 272 273 274 277 279 282 283 284 285 286 285 285 286 287 288 288 289 289 290 291 290 288 289 292 295 295 294 292 290 288 287 287 288 289 292 295 298 300 301
260 259 256 256 258 259 259 256 250 244 242 242 245 247 250 252 252 251 251 252 255 258 261 263 265 265 264 263 264 267 269 269 268 268 270 273 276 277 278 280 281 282 283 284 285 286 287 288 287 287 287 286 286 288 288 287 288 292 294 294 294 292 290 288 288 288 288 287 288 292 295 296 296 299
263 262 258 254 254 256 255 250 244 241 240 239 240 242 244 246 248 249 250 253 256 259 261 261 261 261 261 260 261 264 265 265 267 271 274 277 278 278 279 279 279 280 282 283 283 284 285 286 285 285 285 283 283 285 284 285 289 293 294 292 292 290 289 288 288 287 287 288 289 291 293 293 294 296
264 264 264 258 252 251 251 246 242 243 245 246 244 243 242 243 245 248 251 254 257 258 258 258 259 259 258 256 256 259 263 267 272 275 275 273 271 270 270 270 272 274 278 281 282 283 282 283 283 283 282 282 283 284 283 284 288 292 294 294 293 292 291 291 290 289 287 287 287 287 288 290 292 293
264 263 265 263 257 251 249 246 244 244 247 250 250 249 247 246 247 249 251 254 255 256 256 256 256 256 256 256 256 259 264 268 269 270 270 269 268 267 267 268 269 272 275 278 281 282 282 282 282 281 280 282 285 285 284 285 287 289 291 293 294 294 293 294 293 291 290 288 286 285 286 288 290 291
264 262 262 264 263 258 253 249 248 247 247 249 250 250 250 251 252 254 255 256 257 258 258 257 256 257 259 262 263 264 265 265 265 265 268 269 270 271 273 273 273 276 278 276 274 275 276 276 277 278 280 282 284 284 285 286 287 288 289 289 289 289 289 290 291 290 290 289 288 287 287 288 289 290
263 262 261 261 262 262 259 254 251 249 248 250 252 253 254 255 257 259 261 262 261 260 259 258 259 262 266 269 271 271 270 269 268 267 269 271 273 274 275 275 275 277 279 279 275 273 273 273 274 278 280 281 281 282 284 285 287 288 290 289 288 286 287 289 289 288 287 287 288 289 289 290 290 291
261 260 260 259 259 260 261 258 255 252 251 251 253 254 256 258 260 262 265 265 263 261 261 262 266 270 275 279 281 279 276 274 272 271 271 272 273 275 276 277 277 276 276 278 278 276 275 276 277 279 279 279 279 280 281 284 287 288 290 291 290 290 292 293 293 290 287 285 287 289 290 290 291 292
260 259 258 257 256 257 258 258 257 256 255 254 254 255 256 259 261 263 265 265 264 265 267 270 272 274 277 280 282 280 277 274 274 274 273 273 274 275 277 278 278 276 274 273 274 274 273 274 276 277 278 279 280 280 283 286 289 290 292 293 293 293 295 296 296 295 292 289 288 289 291 292 294 295
261 261 260 258 257 256 256 257 257 258 258 258 259 260 260 261 262 264 266 267 268 269 270 271 273 276 279 280 281 282 282 281 278 275 273 273 274 275 275 275 276 276 273 270 270 271 272 273 276 279 280 281 282 284 288 291 291 293 295 295 295 295 296 296 296 296 296 295 293 290 290 292 294 295
260 261 262 261 259 257 256 255 256 257 258 260 261 262 262 262 262 263 265 267 269 269 270 273 275 277 279 279 279 281 284 286 284 278 274 272 273 275 276 275 274 273 273 272 273 274 274 275 279 283 283 282 284 287 291 291 291 293 294 293 292 293 293 294 294 294 293 294 294 293 292 291 290 290
Height
5975 5976 5977 5978 5979 5980 5980 5981 5981 5982 5982 5982 5982 5983 5983 5984 5984 5985 5986 5986 5986 5987 5987 5987 5988 5988 5988 5988 5988 5988 5987 5986 5986 5985 5984 5984 5983 5982 5982 5981 5980 5980 5979 5978 5977 5976 5975 5973 5972 5971 5970 5969 5967 5966 5965 5963 5961 5960 5959 5957 5955 5953 5951 5949 5947 5944 5942 5940 5938 5936 5934 5932 5929 5927
5975 5976 5977 5978 5979 5980 5981 5981 5982 5982 5983 5983 5983 5983 5984 5984 5985 5985 5986 5986 5986 5987 5987 5988 5988 5988 5988 5988 5988 5987 5987 5986 5986 5985 5984 5984 5983 5982 5981 5980 5980 5979 5978 5977 5977 5976 5975 5973 5972 5971 5970 5969 5968 5966 5965 5963 5962 5960 5959 5958 5956 5954 5952 5950 5948 5946 5944 5941 5939 5938 5936 5934 5931 5929
5975 5976 5976 5978 5979 5980 5980 5981 5982 5983 5983 5983 5984 5984 5984 5984 5985 5985 5986 5987 5987 5987 5987 5988 5988 5988 5988 5988 5987 5987 5987 5986 5986 5985 5984 5983 5983 5981 5980 5980 5979 5978 5977 5977 5976 5975 5974 5973 5972 5971 5969 5968 5967 5966 5965 5964 5962 5960 5959 5958 5956 5955 5953 5951 5949 5947 5945 5943 5941 5939 5937 5935 5933 5931
5975 5976 5976 5977 5978 5979 5980 5981 5982 5982 5983 5983 5984 5984 5984 5985 5985 5986 5986 5987 5987 5987 5987 5987 5987 5987 5987 5987 5987 5987 5986 5986 5985 5985 5984 5983 5983 5981 5980 5978 5978 5978 5977 5976 5975 5974 5974 5973 5971 5970 5969 5968 5967 5966 5965 5963 5962 5960 5959 5958 5956 5955 5953 5952 5950 5948 5946 5944 5942 5940 5938 5936 5935 5932
5975 5976 5976 5977 5978 5979 5980 5981 5981 5982 5983 5983 5983 5984 5984 5985 5985 5985 5986 5987 5987 5987 5987 5987 5987 5987 5987 5987 5986 5986 5986 5985 5985 5984 5983 5983 5982 5982 5980 5978 5977 5976 5976 5975 5974 5974 5973 5972 5971 5969 5968 5967 5966 5965 5964 5963 5962 5960 5959 5957 5956 5955 5954 5952 5950 5949 5947 5945 5943 5942 5940 5938 5936 5934
5975 5975 5976 5977 5978 5979 5979 5980 5981 5982 5982 5982 5983 5983 5984 5984 5984 5985 5985 5986 5987 5987 5987 5987 5987 5987 5986 5986 5986 5985 5985 5985 5984 5983 5982 5982 5981 5981 5981 5979 5976 5975 5975 5974 5973 5973 5972 5971 5970 5969 5967 5966 5965 5964 5963 5962 5961 5960 5958 5957 5956 5955 5953 5952 5951 5949 5948 5946 5944 5943 5941 5939 5937 5936
5974 5975 5976 5976 5977 5978 5979 5980 5981 5981 5982 5982 5982 5983 5983 5983 5984 5984 5984 5985 5985 5986 5986 5986 5986 5986 5985 5985 5985 5984 5984 5984 5983 5982 5981 5980 5980 5979 5979 5979 5977 5975 5974 5973 5972 5972 5971 5970 5969 5968 5966 5965 5964 5963 5962 5961 5960 5959 5958 5956 5955 5954 5953 5952 5951 5950 5948 5947 5945 5944 5942 5940 5939 5937
5974 5974 5975 5976 5977 5978 5979 5979 5980 5981 5981 5981 5982 5982 5982 5983 5983 5983 5983 5984 5984 5984 5984 5984 5984 5984 5984 5984 5983 5983 5983 5982 5982 5981 5980 5979 5978 5978 5977 5977 5976 5975 5973 5972 5971 5970 5970 5969 5968 5967 5965 5964 5963 5962 5961 5959 5958 5958 5957 5955 5954 5953 5952 5951 5950 5950 5949 5947 5946 5944 5943 5941 5940 5938
5973 5974 5975 5975 5976 5977 5978 5979 5979 5980 5980 5981 5981 5981 5982 5982 5982 5982 5982 5982 5983 5983 5983 5983 5983 5983 5982 5982 5982 5981 5981 5981 5980 5980 5979 5978 5977 5976 5975 5975 5975 5974 5973 5972 5970 5969 5968 5967 5967 5966 5964 5963 5962 5961 5960 5958 5957 5957 5956 5955 5954 5952 5951 5950 5950 5949 5948 5947 5946 5945 5943 5942 5940 5939
5972 5973 5974 5974 5975 5976 5977 5978 5978 5979 5979 5980 5980 5981 5981 5981 5981 5981 5981 5981 5981 5981 5981 5981 5981 5981 5981 5981 5980 5980 5980 5979 5979 5978 5978 5977 5976 5975 5974 5973 5973 5973 5972 5971 5969 5968 5967 5966 5965 5964 5963 5962 5960 5960 5959 5958 5957 5956 5955 5954 5953 5952 5950 5949 5949 5948 5947 5947 5946 5945 5943 5942 5941 5940
5971 5971 5972 5973 5974 5975 5976 5976 5977 5977 5978 5979 5979 5979 5980 5980 5980 5980 5980 5980 5980 5980 5980 5980 5980 5980 5980 5979 5979 5979 5978 5978 5978 5977 5977 5976 5975 5974 5973 5972 5971 5971 5971 5970 5969 5967 5966 5965 5964 5963 5962 5961 5959 5958 5958 5957 5956 5955 5954 5953 5952 5951 5950 5949 5948 5947 5946 5946 5945 5945 5943 5942 5941 5940
5969 5970 5971 5972 5973 5974 5974 5975 5975 5976 5976 5977 5977 5978 5978 5978 5978 5979 5979 5979 5979 5979 5979 5979 5979 5979 5979 5978 5978 5978 5977 5977 5977 5976 5976 5975 5974 5973 5972 5971 5970 5969 5969 5969 5968 5967 5966 5965 5963 5962 5961 5960 5958 5957 5956 5956 5955 5954 5953 5952 5951 5950 5949 5948 5947 5946 5945 5944 5944 5944 5943 5942 5941 5940
5968 5968 5969 5970 5971 5972 5972 5973 5974 5974 5975 5975 5976 5976 5976 5977 5977 5977 5978 5978 5978 5978 5978 5978 5978 5978 5977 5977 5977 5976 5976 5976 5975 5975 5974 5974 5973 5972 5971 5970 5969 5969 5968 5967 5967 5966 5966 5965 5964 5962 5960 5959 5957 5956 5955 5954 5954 5953 5952 5951 5950 5949 5948 5947 5946 5945 5944 5943 5943 5942 5942 5941 5940 5939
5967 5967 5968 5969 5969 5970 5971 5971 5972 5972 5973 5973 5974 5974 5975 5975 5975 5976 5976 5976 5976 5976 5976 5976 5976 5976 5975 5975 5975 5975 5975 5974 5974 5973 5973 5973 5972 5972 5971 5970 5969 5968 5968 5967 5965 5964 5964 5964 5964 5963 5961 5959 5956 5955 5954 5953 5952 5951 5950 5949 5949 5948 5947 5946 5945 5944 5943 5942 5941 5941 5941 5940 5939 5939
5965 5966 5967 5967 5968 5969 5969 5970 5970 5971 5971 5971 5972 5972 5973 5973 5974 5974 5974 5974 5974 5974 5974 5974 5974 5974 5974 5973 5973 5973 5973 5973 5973 5972 5972 5971 5971 5971 5970 5970 5968 5967 5967 5966 5965 5963 5962 5962 5962 5961 5961 5960 5957 5955 5954 5953 5951 5950 5949 5948 5948 5947 5946 5945 5944 5943 5942 5941 5940 5940 5939 5939 5938 5938
5964 5965 5965 5966 5967 5967 5968 5968 5968 5969 5969 5970 5970 5970 5971 5972 5972 5972 5972 5972 5972 5972 5973 5973 5972 5972 5972 5972 5972 5972 5972 5972 5971 5971 5970 5970 5970 5969 5969 5968 5967 5966 5965 5965 5964 5962 5961 5960 5960 5959 5959 5958 5956 5954 5953 5952 5951 5950 5949 5948 5947 5946 5945 5944 5943 5942 5941 5940 5939 5938 5938 5937 5937 5936
5962 5963 5963 5964 5965 5966 5966 5966 5967 5967 5967 5967 5968 5969 5969 5970 5970 5970 5970 5970 5970 5970 5971 5971 5971 5970 5970 5971 5970 5970 5970 5970 5969 5969 5969 5968 5968 5968 5967 5967 5966 5964 5963 5963 5962 5961 5959 5959 5958 5957 5957 5956 5954 5953 5952 5951 5951 5950 5949 5947 5946 5945 5944 5943 5942 5941 5940 5939 5938 5937 5936 5935 5935 5935
5959 5960 5961 5962 5963 5963 5964 5964 5964 5965 5965 5965 5965 5966 5967 5967 5967 5968 5968 5968 5968 5968 5969 5969 5969 5969 5968 5969 5969 5968 5968 5968 5968 5967 5967 5966 5966 5965 5965 5965 5964 5962 5961 5960 5960 5959 5958 5957 5957 5956 5956 5954 5952 5951 5950 5949 5949 5949 5947 5946 5945 5944 5942 5941 5940 5940 5939 5938 5937 5936 5935 5934 5933 5933
5957 5957 5958 5959 5960 5961 5961 5961 5962 5962 5962 5962 5963 5963 5964 5965 5965 5965 5965 5965 5965 5965 5966 5966 5967 5967 5966 5966 5966 5966 5965 5965 5965 5965 5964 5964 5963 5963 5963 5963 5962 5960 5959 5958 5958 5957 5956 5954 5954 5954 5954 5953 5951 5949 5948 5947 5946 5946 5945 5944 5943 5942 5941 5940 5939 5938 5937 5936 5935 5934 5933 5932 5931 5931
5954 5954 5955 5956 5957 5957 5958 5958 5958 5958 5958 5959 5959 5960 5961 5961 5962 5963 5963 5963 5963 5963 5963 5963 5964 5964 5964 5964 5964 5963 5963 5962 5962 5961 5961 5961 5960 5959 5960 5960 5959 5958 5957 5955 5954 5955 5954 5953 5951 5951 5951 5951 5950 5948 5946 5945 5944 5943 5943 5942 5941 5940 5939 5938 5937 5936 5935 5934 5934 5933 5932 5930 5929 5929
5950 5951 5952 5953 5953 5954 5954 5954 5954 5954 5954 5955 5956 5957 5957 5958 5959 5960 5960 5959 5959 5960 5960 5960 5961 5961 5961 5961 5961 5960 5960 5959 5958 5958 5958 5957 5956 5957 5957 5957 5957 5956 5955 5952 5951 5952 5952 5951 5950 5949 5948 5948 5948 5947 5945 5943 5942 5941 5940 5940 5939 5938 5936 5936 5935 5934 5933 5932 5931 5931 5930 5929 5928 5927
5946 5947 5948 5948 5949 5950 5950 5950 5950 5951 5951 5952 5953 5953 5954 5955 5957 5957 5957 5956 5956 5957 5956 5957 5957 5957 5957 5957 5957 5957 5956 5956 5955 5954 5954 5953 5953 5953 5954 5954 5954 5954 5952 5949 5948 5949 5949 5947 5946 5946 5945 5945 5945 5945 5943 5941 5940 5938 5938 5937 5936 5935 5934 5933 5932 5932 5931 5930 5929 5928 5927 5926 5925 5925
5943 5943 5944 5944 5945 5946 5946 5946 5946 5947 5947 5948 5949 5950 5951 5953 5954 5954 5952 5952 5953 5953 5954 5954 5954 5954 5954 5953 5953 5953 5952 5952 5951 5951 5951 5950 5949 5950 5950 5950 5950 5950 5949 5946 5945 5946 5946 5944 5943 5942 5941 5941 5942 5942 5941 5939 5938 5936 5935 5935 5934 5933 5932 5931 5930 5929 5928 5927 5926 5925 5924 5924 5923 5922
5940 5940 5941 5941 5941 5942 5942 5942 5943 5943 5944 5945 5946 5946 5948 5950 5950 5949 5948 5949 5949 5950 5950 5951 5951 5951 5951 5950 5949 5949 5948 5947 5947 5948 5948 5948 5947 5947 5947 5946 5946 5946 5945 5943 5942 5943 5942 5941 5940 5939 5938 5938 5938 5938 5938 5937 5936 5934 5933 5932 5932 5931 5930 5929 5928 5927 5926 5925 5924 5923 5922 5921 5920 5919
5936 5937 5938 5938 5938 5938 5938 5938 5939 5940 5941 5942 5942 5943 5944 5945 5945 5944 5945 5945 5946 5946 5947 5947 5947 5947 5947 5947 5946 5945 5945 5944 5944 5944 5944 5944 5944 5944 5944 5943 5943 5942 5941 5940 5939 5939 5939 5938 5937 5936 5935 5935 5934 5934 5935 5935 5933 5932 5930 5929 5928 5928 5928 5927 5925 5924 5923 5922 5921 5920 5919 5918 5918 5917
5932 5933 5934 5934 5934 5934 5935 5935 5935 5936 5938 5938 5939 5940 5941 5941 5940 5940 5941 5941 5942 5942 5942 5942 5942 5942 5943 5943 5942 5942 5941 5941 5940 5940 5940 5940 5940 5940 5940 5940 5939 5939 5938 5936 5936 5936 5935 5935 5934 5932 5932 5931 5930 5930 5931 5931 5931 5929 5928 5926 5925 5924 5924 5924 5922 5921 5920 5919 5918 5917 5916 5915 5915 5915
5928 5929 5930 5930 5930 5931 5932 5932 5933 5933 5934 5935 5937 5937 5937 5937 5936 5937 5937 5938 5938 5938 5938 5937 5937 5937 5937 5938 5939 5938 5937 5937 5936 5936 5937 5936 5936 5935 5936 5936 5936 5935 5934 5933 5932 5931 5931 5931 5930 5929 5928 5927 5927 5926 5926 5927 5927 5927 5925 5924 5922 5921 5920 5920 5920 5918 5916 5916 5915 5914 5913 5912 5912 5912
5923 5924 5924 5925 5926 5927 5929 5929 5930 5930 5931 5932 5934 5934 5934 5933 5933 5933 5934 5934 5934 5934 5934 5933 5933 5933 5933 5933 5933 5933 5933 5933 5933 5932 5932 5932 5932 5932 5932 5931 5931 5931 5930 5929 5928 5927 5927 5926 5925 5924 5924 5923 5922 5922 5922 5922 5923 5924 5923 5922 5920 5918 5917 5917 5917 5916 5914 5913 5912 5911 5910 5909 5909 5908
5918 5919 5919 5920 5922 5922 5923 5925 5926 5927 5928 5929 5929 5930 5930 5930 5930 5930 5931 5930 5929 5930 5930 5930 5929 5929 5929 5928 5928 5928 5928 5928 5928 5928 5927 5927 5928 5928 5928 5928 5928 5927 5926 5924 5923 5923 5923 5923 5922 5920 5920 5919 5918 5918 5918 5917 5918 5920 5920 5919 5918 5916 5914 5913 5913 5913 5912 5911 5910 5908 5907 5906 5906 5905
5912 5914 5914 5916 5917 5918 5919 5920 5921 5923 5924 5924 5925 5925 5925 5926 5926 5926 5926 5926 5926 5926 5926 5926 5926 5925 5924 5924 5924 5923 5923 5923 5923 5923 5922 5923 5922 5922 5922 5923 5924 5924 5923 5921 5919 5918 5918 5918 5918 5917 5916 5915 5915 5914 5914 5914 5914 5915 5915 5915 5914 5913 5911 5909 5909 5909 5908 5908 5907 5906 5904 5903 5902 5901
5906 5907 5908 5910 5912 5913 5915 5916 5917 5919 5919 5919 5920 5921 5921 5921 5921 5921 5921 5921 5922 5922 5922 5922 5921 5921 5920 5920 5919 5919 5919 5919 5919 5917 5917 5918 5918 5917 5916 5917 5919 5919 5919 5918 5917 5915 5914 5914 5913 5913 5912 5911 5911 5910 5910 5910 5910 5909 5910 5910 5910 5909 5908 5906 5904 5904 5903 5903 5903 5903 5901 5900 5899 5898
5901 5902 5903 5904 5906 5907 5909 5910 5911 5912 5913 5914 5915 5916 5915 5915 5916 5916 5916 5917 5918 5918 5918 5917 5917 5916 5916 5916 5915 5915 5915 5915 5914 5913 5913 5913 5913 5913 5912 5913 5914 5914 5913 5913 5913 5912 5911 5911 5910 5909 5908 5908 5907 5906 5906 5906 5905 5904 5904 5904 5905 5905 5904 5903 5901 5899 5899 5898 5898 5898 5897 5896 5895 5893
5896 5898 5899 5899 5900 5901 5902 5904 5905 5906 5906 5907 5909 5910 5910 5910 5911 5911 5912 5913 5914 5913 5913 5913 5913 5912 5911 5911 5911 5911 5911 5911 5911 5910 5909 5909 5909 5909 5909 5910 5910 5910 5910 5910 5909 5908 5907 5907 5906 5906 5905 5904 5903 5902 5902 5901 5901 5899 5898 5899 5900 5900 5899 5898 5897 5896 5894 5893 5892 5892 5891 5891 5890 5889
5892 5894 5895 5896 5896 5897 5898 5899 5900 5900 5900 5901 5903 5904 5905 5905 5906 5906 5907 5909 5909 5909 5909 5909 5908 5907 5907 5907 5906 5906 5907 5907 5907 5906 5906 5906 5906 5905 5906 5906 5907 5907 5906 5906 5906 5905 5904 5904 5903 5902 5902 5901 5900 5899 5898 5897 5896 5894 5893 5894 5895 5895 5894 5893 5892 5892 5891 5889 5887 5886 5886 5885 5885 5884
5888 5890 5891 5891 5891 5892 5893 5894 5894 5894 5895 5896 5898 5898 5899 5900 5901 5902 5903 5904 5904 5904 5904 5904 5904 5903 5902 5902 5902 5902 5903 5903 5903 5903 5902 5902 5902 5902 5902 5903 5903 5903 5903 5902 5902 5901 5900 5901 5900 5899 5898 5897 5896 5896 5894 5891 5890 5889 5889 5889 5890 5889 5888 5887 5886 5886 5886 5884 5882 5881 5881 5880 5880 5879
5884 5884 5884 5886 5886 5887 5888 5889 5888 5889 5890 5891 5892 5893 5894 5896 5896 5897 5898 5899 5899 5899 5899 5899 5898 5898 5897 5897 5898 5899 5899 5899 5899 5899 5899 5899 5899 5899 5899 5900 5900 5899 5898 5898 5897 5896 5896 5896 5896 5895 5894 5892 5892 5892 5890 5886 5884 5885 5885 5884 5884 5883 5883 5882 5881 5880 5880 5879 5877 5875 5875 5875 5875 5874
5880 5879 5879 5880 5881 5882 5883 5884 5884 5884 5885 5886 5887 5887 5889 5890 5891 5892 5893 5893 5893 5894 5894 5893 5892 5892 5892 5893 5893 5894 5893 5894 5895 5897 5897 5897 5896 5895 5895 5896 5895 5894 5893 5893 5892 5891 5890 5890 5890 5889 5888 5887 5886 5887 5885 5882 5881 5880 5878 5877 5877 5877 5876 5876 5876 5875 5874 5873 5872 5870 5869 5868 5869 5869
5875 5874 5874 5875 5876 5877 5878 5879 5880 5881 5882 5883 5883 5884 5885 5886 5886 5887 5887 5888 5889 5889 5888 5887 5886 5885 5885 5886 5887 5889 5890 5892 5895 5895 5893 5890 5889 5888 5888 5889 5889 5889 5888 5888 5887 5886 5885 5884 5884 5883 5882 5880 5880 5880 5879 5878 5878 5877 5873 5870 5870 5869 5869 5870 5870 5869 5869 5868 5866 5865 5863 5862 5862 5862
5870 5870 5870 5870 5872 5873 5874 5875 5876 5877 5878 5879 5880 5881 5881 5882 5882 5882 5882 5883 5883 5883 5881 5879 5878 5876 5877 5880 5885 5888 5890 5891 5891 5888 5885 5882 5881 5882 5882 5882 5882 5882 5882 5883 5883 5881 5879 5878 5877 5876 5875 5875 5874 5873 5872 5872 5873 5873 5870 5867 5864 5862 5862 5862 5863 5863 5862 5862 5860 5858 5857 5857 5855 5854
5863 5865 5866 5866 5867 5868 5870 5871 5872 5873 5874 5875 5876 5877 5877 5877 5878 5878 5878 5878 5878 5877 5874 5870 5868 5869 5873 5879 5884 5887 5886 5885 5883 5882 5880 5878 5877 5878 5878 5877 5876 5876 5876 5876 5876 5875 5874 5872 5870 5868 5868 5868 5868 5866 5865 5866 5867 5866 5865 5863 5861 5859 5858 5858 5857 5857 5856 5856 5854 5853 5852 5851 5850 5848
5856 5859 5861 5861 5861 5862 5864 5866 5867 5868 5869 5870 5871 5871 5872 5872 5873 5873 5873 5873 5872 5869 5864 5860 5861 5866 5871 5876 5880 5881 5880 5878 5877 5877 5876 5874 5873 5872 5872 5871 5871 5870 5869 5869 5869 5869 5867 5865 5863 5861 5861 5861 5860 5859 5859 5860 5860 5859 5857 5856 5855 5854 5853 5853 5853 5852 5850 5849 5848 5847 5846 5845 5844 5843
5850 5852 5854 5855 5856 5856 5858 5859 5861 5863 5864 5865 5866 5866 5867 5867 5867 5867 5868 5866 5863 5860 5858 5858 5861 5865 5867 5870 5874 5877 5875 5872 5870 5870 5870 5868 5867 5866 5866 5865 5865 5864 5863 5862 5863 5862 5860 5858 5856 5854 5853 5853 5852 5852 5853 5854 5853 5851 5850 5850 5849 5848 5847 5846 5845 5844 5843 5842 5842 5841 5839 5838 5837 5837
5843 5845 5847 5849 5850 5851 5851 5852 5854 5855 5856 5857 5859 5860 5861 5861 5862 5862 5861 5858 5857 5857 5857 5857 5859 5860 5861 5863 5866 5866 5865 5864 5863 5862 5861 5860 5859 5860 5860 5859 5858 5857 5856 5856 5855 5854 5853 5851 5848 5846 5845 5845 5844 5844 5846 5847 5846 5845 5844 5843 5843 5842 5841 5839 5837 5836 5835 5835 5835 5834 5832 5831 5829 5829
5835 5837 5839 5842 5843 5844 5845 5845 5846 5847 5848 5850 5852 5854 5854 5855 5856 5856 5854 5852 5852 5853 5852 5851 5852 5854 5856 5857 5856 5856 5856 5857 5856 5855 5854 5853 5853 5853 5853 5852 5851 5850 5849 5848 5847 5846 5845 5844 5842 5840 5840 5841 5839 5839 5840 5841 5840 5840 5839 5837 5835 5835 5835 5833 5830 5829 5828 5827 5826 5825 5824 5823 5822 5821
5829 5830 5832 5834 5836 5837 5838 5838 5838 5839 5841 5843 5845 5847 5847 5848 5849 5849 5848 5847 5846 5844 5843 5843 5846 5850 5851 5851 5850 5849 5850 5850 5849 5848 5848 5847 5847 5846 5846 5845 5844 5843 5843 5843 5843 5841 5840 5841 5840 5838 5836 5835 5835 5835 5835 5833 5831 5832 5832 5829 5826 5826 5826 5825 5824 5823 5822 5820 5817 5816 5816 5815 5814 5813